Location: Laas
(43.4693°N, 0.3073°E)
Time: 16:02:27
(UTC+00:00)

Milstar 3 - Pass Details

Date: 25 October 2020
Orbit: 1101 x 5144 km, 28.2° (Epoch: 25 September)

Event Time Altitude Azimuth Distance (km) Brightness Sun altitude
Rises 17:38:46 0° 234° (SW) 4,432 7.2 -7.8°
Reaches altitude 10° 17:42:43 10° 218° (SW) 3,157 5.9 -8.5°
Maximum altitude 17:47:49 21° 171° (S) 2,256 4.4 -9.4°
Drops below altitude 10° 17:52:40 10° 123° (ESE) 3,001 4.6 -10.3°
Enters shadow 17:54:02 - 116° (ESE) 3,400 4.8 -10.5°
